Portada
METAR-TAF:

METAR-TAF

Aeropuertos :

Corrientes, Argentina

Aeropuerto Internacional Doctor Fernando Piragine Niveyro

latitud: 27-27S, longitud: 058-46W, altitud: 62 m

Observación

El informe se hizo hace 11 minutos, a las 11:00 UTC
Viento 7 kt del sur
Temperatura 15°C
Humedad 88%
Presión 1022 hPa
Visibilidad: 9000 m
Cielo nuboso a una altura de 600 ft
Cielo cubierto a una altura de 800 ft

METAR: SARC 231100Z 18007KT 9000 BKN006 OVC008 15/13 Q1022 RETS

Hora: 08:11 (11:11 UTC)


TAF: falta

Observaciones y pronósticos meteorológicos de más de 4000 aeropuertos (mensajes METAR y TAF).

Los puntos amarillos y rojos representan las estaciones disponibles.

Ponga el ratón en el punto deseado para ver el nombre de la estación.

Haga clic para ver las observaciones y los pronósticos meteorológicos.

Para cambiar el mapa : haga clic en los botones verdes con una cruz de color negro para hacer un zoom, en el botón verde con un guión para alejar o en las flechas verdes para mapas adyacentes.


METAR-TAF: